Saint Johns, AZ

4:26 PM MST on December 10, 2016 (GMT -0700)
Saint Johns Industrial

Weather History for KSJN - August, 2012

Change the Weather History Date:

Thursday, August 16, 2012

  Actual Average (KLSB) Record (KLSB)
Temperature  
Mean Temperature 70 °F -  
Max Temperature 82 °F 93 °F 98 °F (2015)
Min Temperature 58 °F 61 °F 60 °F (2016)
Cooling Degree Days 5    
Growing Degree Days 20 (Base 50)    
Moisture  
Dew Point 51 °F    
Average Humidity 46    
Maximum Humidity 78    
Minimum Humidity 26    
Precipitation  
Precipitation 0.08 in - - ()
Sea Level Pressure  
Sea Level Pressure 29.91 in    
Wind  
Wind Speed 8 mph (South)    
Max Wind Speed 18 mph    
Max Gust Speed 31 mph    
Visibility 10 miles    
Events Rain    
Averages and records for this station are not official NWS values.
T = Trace of Precipitation, MM = Missing Value Source: NWS Daily Summary

Daily Weather History Graph

Daily Weather History Graph

Search for Another Location

Airport or City:

Trip Planner

Search our weather history database for the weather conditions in past years. The results will help you decide how hot, cold, wet, or windy it might be!

Date:

Astronomy

Aug. 16, 2012 Rise Set
Actual Time 5:39 AM MST 7:03 PM MST
Civil Twilight 5:12 AM MST 7:29 PM MST
Nautical Twilight 4:41 AM MST 8:01 PM MST
Astronomical Twilight 4:07 AM MST 8:34 PM MST
Moon 4:41 AM MST (8/16) 6:16 PM MST (8/16)
Length of Visible Light 14h 16m
Length of Day
13h 23m
Waning Crescent, 1% of the Moon is Illuminated
Aug 16
Waning Crescent
Aug 17
New
Aug 24
First Quarter
Aug 31
Full
Sep 8
Last Quarter

Hourly Weather History & Observations

Time (MST) Temp. Dew Point Humidity Pressure Visibility Wind Dir Wind Speed Gust Speed Precip Events Conditions
12:54 AM 71.1 °F 46.0 °F 41% 29.82 in 10.0 mi SSW 5.8 mph - N/A   Clear
1:54 AM 70.0 °F 46.9 °F 44% 29.81 in 10.0 mi SSW 8.1 mph - N/A   Clear
2:54 AM 66.9 °F 46.9 °F 49% 29.82 in 10.0 mi SSW 3.5 mph - N/A   Clear
3:54 AM 70.0 °F 46.9 °F 44% 29.80 in 10.0 mi SW 12.7 mph - N/A   Clear
4:54 AM 70.0 °F 48.9 °F 47% 29.82 in 10.0 mi SSW 10.4 mph - N/A   Clear
5:54 AM 68.0 °F 48.9 °F 50% 29.86 in 10.0 mi ESE 3.5 mph - N/A   Clear
6:54 AM 71.1 °F 51.1 °F 49% 29.88 in 10.0 mi Calm Calm - N/A   Clear
7:54 AM 75.0 °F 54.0 °F 48% 29.89 in 10.0 mi SW 5.8 mph - N/A   Clear
8:54 AM 78.1 °F 52.0 °F 40% 29.90 in 10.0 mi West 9.2 mph - N/A   Partly Cloudy
9:54 AM 80.1 °F 51.1 °F 36% 29.91 in 10.0 mi West 6.9 mph - N/A   Scattered Clouds
10:54 AM 82.0 °F 51.1 °F 34% 29.89 in 10.0 mi Variable 5.8 mph - N/A   Partly Cloudy
11:54 AM 84.0 °F 51.1 °F 32% 29.88 in 10.0 mi WSW 6.9 mph - N/A   Mostly Cloudy
12:54 PM 84.0 °F 51.1 °F 32% 29.86 in 10.0 mi SW 4.6 mph - N/A   Scattered Clouds
1:54 PM 84.9 °F 48.0 °F 28% 29.83 in 10.0 mi SW 6.9 mph - 0.00 in   Mostly Cloudy
2:54 PM 86.0 °F 46.9 °F 26% 29.81 in 10.0 mi Calm Calm - N/A   Clear
3:54 PM 82.0 °F 46.0 °F 28% 29.82 in 10.0 mi South 18.4 mph 31.1 mph N/A   Clear
4:54 PM 75.0 °F 53.1 °F 46% 29.86 in 10.0 mi SSE 18.4 mph 28.8 mph N/A   Mostly Cloudy
5:54 PM 75.0 °F 48.9 °F 40% 29.88 in 10.0 mi SSE 13.8 mph 24.2 mph N/A   Overcast
6:37 PM 73.4 °F 53.6 °F 50% 30.22 in 10.0 mi ENE 16.1 mph 25.3 mph N/A   Overcast
6:54 PM 71.1 °F 54.0 °F 55% 29.96 in 10.0 mi East 11.5 mph 19.6 mph N/A   Overcast
7:54 PM 73.0 °F 52.0 °F 48% 29.94 in 10.0 mi ESE 12.7 mph - N/A   Overcast
8:54 PM 72.0 °F 52.0 °F 49% 29.95 in 10.0 mi SSE 3.5 mph - N/A   Mostly Cloudy
9:54 PM 68.0 °F 57.0 °F 68% 29.98 in 10.0 mi SSW 8.1 mph - 0.00 in Rain Light Rain
10:54 PM 66.0 °F 57.9 °F 75% 29.96 in 10.0 mi South 8.1 mph - 0.00 in   Scattered Clouds
11:54 PM 66.0 °F 55.0 °F 68% 29.96 in 10.0 mi SSE 4.6 mph - N/A   Clear